Location: Devore Heights
(34.2372°N, 117.4156°W)
Time: 23:31:35
(UTC+00:00)

Explorer 11/Cluster Stage 4 - Pass Details

Date: 15 September 2024
Orbit: 464 x 1207 km, 28.8° (Epoch: 14 October)

Event Time Altitude Azimuth Distance (km) Brightness Sun altitude
Exits shadow 12:08:46 - 193° (SSW) 2,747 9.1 -18.0°
Reaches altitude 10° 12:10:13 10° 182° (S) 2,466 8.9 -17.7°
Maximum altitude 12:13:35 15° 147° (SSE) 2,250 9.1 -17.0°
Drops below altitude 10° 12:17:17 10° 114° (ESE) 2,771 10.1 -16.3°
Sets 12:21:26 0° 94° (E) 3,873 11.6 -15.5°
